Home   Weather   St. Peter Port   Past weeks

Flag for Guernsey Past Weather in St. Peter Port, Guernsey — Yesterday and Last 2 Weeks

Now
50 °F

Sunny.


Feels Like: 50 °F
Forecast: N/A
Wind: 2 mph from North

Location: Guernsey Airport

Current Time: Jan 23, 2017 at 2:52:23 pm

Latest Report: Jan 23, 2017 at 2:20 pm


Visibility: 10 mi

Pressure: 30.33 "Hg

Humidity: 58%

Dew Point: 36 °F

Location of St. Peter PortLocation

Past Weather in St. Peter Port — Graph

°F

St. Peter Port Temperature Yesterday

Maximum temperature yesterday: 48 °F (at 1:20 pm)
Minimum temperature yesterday: 36 °F (at 6:20 am)
Average temperature yesterday: 41 °F

High & Low Weather Summary for the Past Weeks

 TemperatureHumidityPressure
High54 °F (Jan 8, 1:20 pm)100% (Jan 8, 1:50 pm)30.60 "Hg (Jan 8, 1:50 pm)
Low30 °F (Jan 20, 3:50 am)42% (Jan 13, 11:50 am)29.36 "Hg (Jan 12, 2:50 pm)
Average44 °F76%30.24 "Hg
* Reported Jan 8 1:20 pm — Jan 23 1:20 pm, St. Peter Port, Weather by CustomWeather, © 2017

Note: Actual official high and low records may vary slightly from our data, if they occured in-between our weather recording intervals... More about our weather records

Advertising

St. Peter Port Weather History for the Previous 24 Hours

Scroll right to see more
 ConditionsComfort  
Time TempWeatherWind HumidityBarometerVisibility
1:20 pm
Mon, Jan 23
50 °FSunny.2 mph62%30.33 "Hg10 mi
12:50 pm50 °FSunny.3 mph58%30.33 "Hg10 mi
12:20 pm48 °FSunny.5 mph58%30.36 "Hg10 mi
11:50 am48 °FSunny.5 mph62%30.36 "Hg10 mi
11:20 am48 °FSunny.3 mph62%30.36 "Hg10 mi
10:50 am48 °FSunny.2 mph62%30.36 "Hg10 mi
10:20 am48 °FSunny.3 mph62%30.36 "Hg10 mi
9:50 am45 °FSunny.1 mph81%30.36 "Hg10 mi
9:20 am45 °FSunny.1 mph71%30.36 "Hg10 mi
8:50 am41 °FSunny.2 mph76%30.36 "Hg10 mi
8:20 am41 °FSunny.No wind76%30.36 "Hg10 mi
7:50 am39 °FClear.1 mph81%30.33 "Hg10 mi
7:20 am39 °FClear.No wind75%30.33 "Hg10 mi
6:50 am39 °FClear.3 mph75%30.33 "Hg10 mi
6:20 am39 °FClear.3 mph87%30.33 "Hg10 mi
5:50 am39 °FClear.3 mph87%30.33 "Hg10 mi
5:20 am39 °FClear.3 mph87%30.33 "Hg10 mi
4:50 am39 °FClear.3 mph81%30.33 "Hg10 mi
4:20 am37 °FClear.5 mph81%30.33 "Hg10 mi
3:50 am37 °FClear.6 mph81%30.33 "Hg10 mi
8:50 pm
Sun, Jan 22
39 °FClear.6 mph56%30.30 "Hg10 mi
8:20 pm37 °FClear.5 mph70%30.30 "Hg10 mi
7:50 pm37 °FClear.5 mph70%30.30 "Hg10 mi
7:20 pm37 °FClear.5 mph70%30.30 "Hg10 mi
6:50 pm39 °FClear.3 mph75%30.30 "Hg10 mi
6:20 pm37 °FClear.6 mph87%30.30 "Hg10 mi
5:50 pm41 °FClear.7 mph81%30.27 "Hg10 mi
5:20 pm37 °FClear.7 mph87%30.27 "Hg10 mi
4:50 pm39 °FClear.6 mph75%30.27 "Hg10 mi
4:20 pm41 °FSunny.6 mph76%30.27 "Hg10 mi
3:50 pm45 °FSunny.3 mph66%30.27 "Hg10 mi
3:20 pm46 °FSunny.5 mph57%30.24 "Hg10 mi
2:50 pm46 °FSunny.5 mph62%30.24 "Hg10 mi
2:20 pm46 °FSunny.6 mph57%30.24 "Hg10 mi
Weather by CustomWeather, © 2017

See weather overviewHow to use our weather pages